Weather Roundup
Issued by NWS

Home | Current Version | Previous Version | Text Only | Print | Product List | Glossary On
Versions: 1 2 3 4 5 6 7 8 9 10 11 12 13 14 15 16 17 18 19 20 21 22 23 24 25 26 27 28 29 30 31 32 33 34 35 36 37 38 39 40 41 42 43 44 45 46 47 48 49 50
000
NZUS93 KARX 260310
HRRWXR

CURRENT HOURLY OBSERVATIONS ACROSS
MUCH OF THE UPPER MISSISSIPPI VALLEY
NATIONAL WEATHER SERVICE LA CROSSE WI
900 PM CST THU DEC 25 2014


...SOUTHEAST MINNESOTA...


CITY           SKY/WX    TMP DP  RH WIND       PRES   REMARKS
ROCHESTER      CLOUDY    30  27  88 SE7       29.82R WCI  23
ROCHESTER/MAYO FAIR      34  30  85 E3        29.82S
WINONA         CLOUDY    34  32  93 CALM      29.86R
AUSTIN         MOCLDY    30  28  93 CALM      29.80S
ALBERT LEA     MOCLDY    30  30 100 NE5       29.78F WCI  25
DODGE CENTER   CLOUDY    30  30 100 E5        29.81R WCI  25
PRESTON        MOCLDY    33  30  88 S7        29.82S WCI  27
OWATONNA       CLOUDY    32  28  86 CALM      29.82R
FARIBAULT      CLOUDY    30  30 100 CALM      29.83R
$$

...ELSEWHERE IN MINNESOTA...


CITY           SKY/WX    TMP DP  RH WIND       PRES   REMARKS
MINNEAPOLIS    CLOUDY    33  30  88 N6        29.85F WCI  28
INTNL FALLS    CLOUDY    27  22  81 NW3       29.87R
DULUTH         CLOUDY    31  25  78 N3        29.85R
RED WING       CLOUDY    32  28  86 CALM      29.84S
REDWOOD FALLS  CLOUDY    33  31  92 N7        29.84S FOG     WCI  27
MANKATO        MOCLDY    30  27  86 NE8       29.82R WCI  23
WORTHINGTON    CLOUDY    30 -17  12 N13       29.79R WCI  20
FAIRMONT       CLOUDY    32  28  86 N7        29.78S WCI  26
$$

...SOUTHWEST WISCONSIN...


CITY           SKY/WX    TMP DP  RH WIND       PRES   REMARKS
LA CROSSE      CLOUDY    31  29  92 CALM      29.86R
PRAIRIE DU CHI MOCLDY    42  31  66 SE3       29.87R
BOSCOBEL       MOCLDY    33  29  85 CALM      29.89R
LONE ROCK      CLOUDY    44  32  62 VRB3      29.90R
PLATTEVILLE    MOCLDY    38  33  81 S13       29.90R WCI  30
FORT MC COY    CLOUDY    29  29  99 CALM      29.87S
CAMP DOUGLAS   CLOUDY    31  31 100 SE5       29.87S WCI  26
VIROQUA        FAIR      36  34  90 S10       29.85R WCI  29
WIS DELLS      CLOUDY    38  32  78 S12       29.88R WCI  31
$$

...ELSEWHERE IN WISCONSIN...


CITY           SKY/WX    TMP DP  RH WIND       PRES   REMARKS
MILWAUKEE      MOCLDY    40  33  76 S12       29.95S WCI  33
MADISON        CLOUDY    40  33  76 S12       29.91R WCI  33
GREEN BAY      CLOUDY    32  31  96 CALM      29.91S
EAU CLAIRE     CLOUDY    31  28  89 NE3       29.86S
BLACK RVR FLS  FAIR      30  30 100 CALM      29.86S
MEDFORD        MOCLDY    28  26  94 CALM      29.86S
WAUSAU         MOCLDY    30  27  88 CALM      29.88R
WIS RAPIDS     MOCLDY    29  26  89 CALM      29.89R
MARSHFIELD     MOCLDY    30  27  88 E6        29.86S WCI  24
RICE LAKE      CLOUDY    32  31  97 N3        29.89R FOG
$$

...NORTHEAST IOWA...


CITY           SKY/WX    TMP DP  RH WIND       PRES   REMARKS
DECORAH        MOCLDY    37  32  81 S8        29.82S WCI  31
MASON CITY     CLEAR     33  30  88 SE8       29.79S WCI  26
CHARLES CITY   PTCLDY    36  34  93 SE12      29.81S WCI  27
OELWEIN        MOCLDY    36  32  87 SE12      29.84S WCI  27
$$

...ELSEWHERE IN IOWA...


CITY           SKY/WX    TMP DP  RH WIND       PRES   REMARKS
DES MOINES     CLOUDY    43  30  60 SE13      29.77R
IOWA CITY      MOCLDY    37  32  82 SE8       29.88S WCI  31
FORT DODGE     PTCLDY    32  25  74 E7        29.75S WCI  26
$$

...NORTHERN ILLINOIS...


CITY           SKY/WX    TMP DP  RH WIND       PRES   REMARKS
CHICAGO-OHARE  CLOUDY    40  34  79 S15       29.97F WCI  32
CHICAGO-MIDWAY MOCLDY    42  34  73 S14       29.99F
MOLINE         PTCLDY    40  33  76 SE10      29.91R WCI  33
ROCKFORD       MOCLDY    39  33  79 S13       29.97R WCI  31
PEORIA         PTCLDY    42  33  70 S14G23    29.97R
$$

NOTE: "FAIR" INDICATES FEW OR NO CLOUDS BELOW 12,000 FEET WITH NO
SIGNIFICANT WEATHER AND/OR OBSTRUCTIONS TO VISIBILITY. WIND
SPEEDS ARE IN MILES-PER-HOUR.



USA.gov is the U.S. government's official web portal to all federal, state and local government web resources and services.